Overview Statistics Trail Chart Weather Telemetry Raw packets
 

This is the latest recevied weather packets stored in our database for station/object K0QED. If no packets are shown the sender has not sent any weather packets the latest 10 day(s).

<< 87 88 89 90 91 92 93 >>
Time Temp. Humidity Pressure Rain* Wind** Luminosity Snow
1787980552 15.56° C 62% 1028.1 hPa 0 mm - 0 W/m² -
1787980248 16.11° C 62% 1028.2 hPa 0 mm - 0 W/m² -
1787979942 16.11° C 63% 1028.2 hPa 0 mm - 0 W/m² -
1787979642 16.11° C 62% 1028.1 hPa 0 mm - 0 W/m² -
1787979336 16.11° C 62% 1028.5 hPa 0 mm - 0 W/m² -
1787979036 16.11° C 62% 1028.6 hPa 0 mm - 0 W/m² -
1787978735 16.11° C 64% 1028.5 hPa 0 mm - 0 W/m² -
1787978430 16.67° C 62% 1028.9 hPa 0 mm - 0 W/m² -
1787978126 16.11° C 62% 1028.9 hPa 0 mm - 0 W/m² -
1787977826 16.67° C 63% 1028.9 hPa 0 mm - 0 W/m² -
1787977520 16.67° C 60% 1029 hPa 0 mm - 0 W/m² -
1787977215 17.22° C 59% 1029.1 hPa 0 mm - 0 W/m² -
1787976911 17.22° C 60% 1029.2 hPa 0 mm - 0 W/m² -
1787976611 17.22° C 60% 1029.2 hPa 0 mm - 0 W/m² -
1787976306 16.67° C 60% 1029.2 hPa 0 mm - 0 W/m² -
1787976005 16.11° C 63% 1029.4 hPa 0 mm - 0 W/m² -
1787975704 16.67° C 63% 1029.4 hPa 0 mm - 0 W/m² -
1787975403 17.22° C 60% 1028.9 hPa 0 mm - 0 W/m² -
1787975103 17.22° C 57% 1029.2 hPa 0 mm - 0 W/m² -
1787974801 17.22° C 58% 1029.2 hPa 0 mm - 0 W/m² -
1787974501 16.67° C 58% 1029.2 hPa 0 mm - 0 W/m² -
1787974195 16.67° C 58% 1029.1 hPa 0 mm - 0 W/m² -
1787973890 16.11° C 59% 1028.9 hPa 0 mm - 0 W/m² -
1787973585 16.67° C 60% 1028.6 hPa 0 mm - 0 W/m² -
1787973280 17.22° C 56% 1028.2 hPa 0 mm - 0 W/m² -

* Rain latest hour (hover to see other rain measurements)
** Current wind speed in m/s (hover to see current wind gust speed)